Powrót do katalogu

FENGYUN 1C DEB

AktywnyPO
NORAD 36160·DEBRIS·🇨🇳 China

Wystrzelony May 10, 1999 z Taiyuan Satellite Launch Center

Loading…

Następne Przeloty (najbliższe 24 godziny)

TLE

ŚwieżeSource: Space-Track

Epoka: Sep 14, 2026, 06:23 UTC

1 36160U 99025DSH 26257.26657492  .00000266  00000-0  14781-3 0  9992
2 36160  98.1408  79.1727 0135067  74.1673 287.4344 14.13468800639444

Śledź FENGYUN 1C DEB w czasie rzeczywistym z AllMySat

Download on the App Store